SL-19 DEB, 23483

Orbit data source: Space-Track

SL-19 DEB, 23483 is space debris in LEO originally from a launch on Mon, 26 Dec 1994 UTC launched from the Tyuratam Missile And Space Complex (TTMTR). Debris objects in space refer to the collection of defunct objects orbiting the Earth. Examples of debris include non-operational satellites, rocket bodies, and fragments generated from explosions, collisions, or faulty payload assembly.

Loading next visibility...
Identifier
23483, 1994-085F
Orbit
LEO
Country
Flag of CISCIS
Related business
Manufacturer
Unknown
Mission
Spacecraft
Bus & Motor
Unknown
Mass
Unknown
Launch date (UTC)
1994-12-26 (31 years ago)
Launch vehicle
Unknown
Launch site
Tyuratam Missile And Space Complex (TTMTR)
Object type
Payload
Rocket body
Debris
Shape & HBR
Unknown shape, 0.9 m
Radar Cross Section
Medium (>0.1 m² and <1 m²)

Expand to show TLE details & history
Last TLE update: 19 hours ago

TLE from 19 hours ago
0 SL-19 DEB
1 23483U 94085F   26062.02278078 -.00000066  00000-0 -69235-3 0  9998
2 23483  64.7252 229.0707 0194444 188.2062 263.0394 11.22867263278572
Epoch: 2026-03-03T00:32Z
TLE epoch observation values (Epoch: 2026-03-03T00:32:48.259Z)
Latitude
64.80979°
Longitude
147.8133°
Altitude
2,079.054 km
Speed
6.863 km/s
True Right ascension
21h 07m 17s
True Declination
64° 41' 52"
Sunlit
Object was in daylight at epoch
Visualization orbit readout
Latitude
Unknown
Longitude
Unknown
Altitude
Unknown
Speed
Unknown
Apparent Right ascension
Unknown
Apparent Declination
Unknown
Sunlit
N/A
Visualization observer readout
Local Sidereal Time
23:34:33
Azimuth
Unknown
Elevation
Unknown
Doppler factor
Unknown
Orbital elements
Apogee altitude
2,208.418 km
Perigee altitude
1,880.866 km
Semi-major axis
8,422.779 km
Eccentricity
0.01944
Inclination
64.7252°
RAAN
229.0707°
Arg. of periapsis
188.2062°
True anomaly
260.8347°
Mean anomaly
263.0394°
Eccentric anomaly
261.93633°
Mean motion
2.80776 °/min
Orbital period
128.22 mins
BSTAR
-0.00069235
Loading maneuver chart data...
Computing Atmospheric mass density...
Loading historical data...
Loading historical data...
Loading historical data...
Loading historical data...
Loading historical data...
Loading historical data...
Loading historical data...

Documentation

Showing up to 5 results
|